Year,Month,Day,Hour,Minute,Value (Times are PST for insolation in W/m^2)
2013,10,08,00,00,0.00
2013,10,08,00,01,0.00
2013,10,08,00,02,0.00
2013,10,08,00,03,0.00
2013,10,08,00,04,0.00
2013,10,08,00,05,0.00
2013,10,08,00,06,0.00
2013,10,08,00,07,0.00
2013,10,08,00,08,0.00
2013,10,08,00,09,0.00
2013,10,08,00,10,0.00
2013,10,08,00,11,0.00
2013,10,08,00,12,0.00
2013,10,08,00,13,0.00
2013,10,08,00,14,0.00
2013,10,08,00,15,0.00
2013,10,08,00,16,0.00
2013,10,08,00,17,0.00
2013,10,08,00,18,0.00
2013,10,08,00,19,0.00
2013,10,08,00,20,0.00
2013,10,08,00,21,0.00
2013,10,08,00,22,0.00
2013,10,08,00,23,0.00
2013,10,08,00,24,0.00
2013,10,08,00,25,0.00
2013,10,08,00,26,0.00
2013,10,08,00,27,0.00
2013,10,08,00,28,0.00
2013,10,08,00,29,0.00
2013,10,08,00,30,0.00
2013,10,08,00,31,0.00
2013,10,08,00,32,0.00
2013,10,08,00,33,0.00
2013,10,08,00,34,0.00
2013,10,08,00,35,0.00
2013,10,08,00,36,0.00
2013,10,08,00,37,0.00
2013,10,08,00,38,0.00
2013,10,08,00,39,0.00
2013,10,08,00,40,0.00
2013,10,08,00,41,0.00
2013,10,08,00,42,0.00
2013,10,08,00,43,0.00
2013,10,08,00,44,0.00
2013,10,08,00,45,0.00
2013,10,08,00,46,0.00
2013,10,08,00,47,0.00
2013,10,08,00,48,0.00
2013,10,08,00,49,0.00
2013,10,08,00,50,0.00
2013,10,08,00,51,0.00
2013,10,08,00,52,0.00
2013,10,08,00,53,0.00
2013,10,08,00,54,0.00
2013,10,08,00,55,0.00
2013,10,08,00,56,0.00
2013,10,08,00,57,0.00
2013,10,08,00,58,0.00
2013,10,08,00,59,0.00
2013,10,08,01,00,0.00
2013,10,08,01,01,0.00
2013,10,08,01,02,0.00
2013,10,08,01,03,0.00
2013,10,08,01,04,0.00
2013,10,08,01,05,0.00
2013,10,08,01,06,0.00
2013,10,08,01,07,0.00
2013,10,08,01,08,0.00
2013,10,08,01,09,0.00
2013,10,08,01,10,0.00
2013,10,08,01,11,0.00
2013,10,08,01,12,0.00
2013,10,08,01,13,0.00
2013,10,08,01,14,0.00
2013,10,08,01,15,0.00
2013,10,08,01,16,0.00
2013,10,08,01,17,0.00
2013,10,08,01,18,0.00
2013,10,08,01,19,0.00
2013,10,08,01,20,0.00
2013,10,08,01,21,0.00
2013,10,08,01,22,0.00
2013,10,08,01,23,0.00
2013,10,08,01,24,0.00
2013,10,08,01,25,0.00
2013,10,08,01,26,0.00
2013,10,08,01,27,0.00
2013,10,08,01,28,0.00
2013,10,08,01,29,0.00
2013,10,08,01,30,0.00
2013,10,08,01,31,0.00
2013,10,08,01,32,0.00
2013,10,08,01,33,0.00
2013,10,08,01,34,0.00
2013,10,08,01,35,0.00
2013,10,08,01,36,0.00
2013,10,08,01,37,0.00
2013,10,08,01,38,0.00
2013,10,08,01,39,0.00
2013,10,08,01,40,0.00
2013,10,08,01,41,0.00
2013,10,08,01,42,0.00
2013,10,08,01,43,0.00
2013,10,08,01,44,0.00
2013,10,08,01,45,0.00
2013,10,08,01,46,0.00
2013,10,08,01,47,0.00
2013,10,08,01,48,0.00
2013,10,08,01,49,0.00
2013,10,08,01,50,0.00
2013,10,08,01,51,0.00
2013,10,08,01,52,0.00
2013,10,08,01,53,0.00
2013,10,08,01,54,0.00
2013,10,08,01,55,0.00
2013,10,08,01,56,0.00
2013,10,08,01,57,0.00
2013,10,08,01,58,0.00
2013,10,08,01,59,0.00
2013,10,08,02,00,0.00
2013,10,08,02,01,0.00
2013,10,08,02,02,0.00
2013,10,08,02,03,0.00
2013,10,08,02,04,0.00
2013,10,08,02,05,0.00
2013,10,08,02,06,0.00
2013,10,08,02,07,0.00
2013,10,08,02,08,0.00
2013,10,08,02,09,0.00
2013,10,08,02,10,0.00
2013,10,08,02,11,0.00
2013,10,08,02,12,0.00
2013,10,08,02,13,0.00
2013,10,08,02,14,0.00
2013,10,08,02,15,0.00
2013,10,08,02,16,0.00
2013,10,08,02,17,0.00
2013,10,08,02,18,0.00
2013,10,08,02,19,0.00
2013,10,08,02,20,0.00
2013,10,08,02,21,0.00
2013,10,08,02,22,0.00
2013,10,08,02,23,0.00
2013,10,08,02,24,0.00
2013,10,08,02,25,0.00
2013,10,08,02,26,0.00
2013,10,08,02,27,0.00
2013,10,08,02,28,0.00
2013,10,08,02,29,0.00
2013,10,08,02,30,0.00
2013,10,08,02,31,0.00
2013,10,08,02,32,0.00
2013,10,08,02,33,0.00
2013,10,08,02,34,0.00
2013,10,08,02,35,0.00
2013,10,08,02,36,0.00
2013,10,08,02,37,0.00
2013,10,08,02,38,0.00
2013,10,08,02,39,0.00
2013,10,08,02,40,0.00
2013,10,08,02,41,0.00
2013,10,08,02,42,0.00
2013,10,08,02,43,0.00
2013,10,08,02,44,0.00
2013,10,08,02,45,0.00
2013,10,08,02,46,0.00
2013,10,08,02,47,0.00
2013,10,08,02,48,0.00
2013,10,08,02,49,0.00
2013,10,08,02,50,0.00
2013,10,08,02,51,0.00
2013,10,08,02,52,0.00
2013,10,08,02,53,0.00
2013,10,08,02,54,0.00
2013,10,08,02,55,0.00
2013,10,08,02,56,0.00
2013,10,08,02,57,0.00
2013,10,08,02,58,0.00
2013,10,08,02,59,0.00
2013,10,08,03,00,0.00
2013,10,08,03,01,0.00
2013,10,08,03,02,0.00
2013,10,08,03,03,0.00
2013,10,08,03,04,0.00
2013,10,08,03,05,0.00
2013,10,08,03,06,0.00
2013,10,08,03,07,0.00
2013,10,08,03,08,0.00
2013,10,08,03,09,0.00
2013,10,08,03,10,0.00
2013,10,08,03,11,0.00
2013,10,08,03,12,0.00
2013,10,08,03,13,0.00
2013,10,08,03,14,0.00
2013,10,08,03,15,0.00
2013,10,08,03,16,0.00
2013,10,08,03,17,0.00
2013,10,08,03,18,0.00
2013,10,08,03,19,0.00
2013,10,08,03,20,0.00
2013,10,08,03,21,0.00
2013,10,08,03,22,0.00
2013,10,08,03,23,0.00
2013,10,08,03,24,0.00
2013,10,08,03,25,0.00
2013,10,08,03,26,0.00
2013,10,08,03,27,0.00
2013,10,08,03,28,0.00
2013,10,08,03,29,0.00
2013,10,08,03,30,0.00
2013,10,08,03,31,0.00
2013,10,08,03,32,0.00
2013,10,08,03,33,0.00
2013,10,08,03,34,0.00
2013,10,08,03,35,0.00
2013,10,08,03,36,0.00
2013,10,08,03,37,0.00
2013,10,08,03,38,0.00
2013,10,08,03,39,0.00
2013,10,08,03,40,0.00
2013,10,08,03,41,0.00
2013,10,08,03,42,0.00
2013,10,08,03,43,0.00
2013,10,08,03,44,0.00
2013,10,08,03,45,0.00
2013,10,08,03,46,0.00
2013,10,08,03,47,0.00
2013,10,08,03,48,0.00
2013,10,08,03,49,0.00
2013,10,08,03,50,0.00
2013,10,08,03,51,0.00
2013,10,08,03,52,0.00
2013,10,08,03,53,0.00
2013,10,08,03,54,0.00
2013,10,08,03,55,0.00
2013,10,08,03,56,0.00
2013,10,08,03,57,0.00
2013,10,08,03,58,0.00
2013,10,08,03,59,0.00
2013,10,08,04,00,0.00
2013,10,08,04,01,0.00
2013,10,08,04,02,0.00
2013,10,08,04,03,0.00
2013,10,08,04,04,0.00
2013,10,08,04,05,0.00
2013,10,08,04,06,0.00
2013,10,08,04,07,0.00
2013,10,08,04,08,0.00
2013,10,08,04,09,0.00
2013,10,08,04,10,0.00
2013,10,08,04,11,0.00
2013,10,08,04,12,0.00
2013,10,08,04,13,0.00
2013,10,08,04,14,0.00
2013,10,08,04,15,0.00
2013,10,08,04,16,0.00
2013,10,08,04,17,0.00
2013,10,08,04,18,0.00
2013,10,08,04,19,0.00
2013,10,08,04,20,0.00
2013,10,08,04,21,0.00
2013,10,08,04,22,0.00
2013,10,08,04,23,0.00
2013,10,08,04,24,0.00
2013,10,08,04,25,0.00
2013,10,08,04,26,0.00
2013,10,08,04,27,0.00
2013,10,08,04,28,0.00
2013,10,08,04,29,0.00
2013,10,08,04,30,0.00
2013,10,08,04,31,0.00
2013,10,08,04,32,0.00
2013,10,08,04,33,0.00
2013,10,08,04,34,0.00
2013,10,08,04,35,0.00
2013,10,08,04,36,0.00
2013,10,08,04,37,0.00
2013,10,08,04,38,0.00
2013,10,08,04,39,0.00
2013,10,08,04,40,0.00
2013,10,08,04,41,0.00
2013,10,08,04,42,0.00
2013,10,08,04,43,0.00
2013,10,08,04,44,0.00
2013,10,08,04,45,0.00
2013,10,08,04,46,0.00
2013,10,08,04,47,0.00
2013,10,08,04,48,0.00
2013,10,08,04,49,0.00
2013,10,08,04,50,0.00
2013,10,08,04,51,0.00
2013,10,08,04,52,0.00
2013,10,08,04,53,0.00
2013,10,08,04,54,0.00
2013,10,08,04,55,0.00
2013,10,08,04,56,0.00
2013,10,08,04,57,0.00
2013,10,08,04,58,0.00
2013,10,08,04,59,0.00
2013,10,08,05,00,0.00
2013,10,08,05,01,0.00
2013,10,08,05,02,0.00
2013,10,08,05,03,0.00
2013,10,08,05,04,0.00
2013,10,08,05,05,0.00
2013,10,08,05,06,0.00
2013,10,08,05,07,0.00
2013,10,08,05,08,0.00
2013,10,08,05,09,0.00
2013,10,08,05,10,0.00
2013,10,08,05,11,0.00
2013,10,08,05,12,0.00
2013,10,08,05,13,0.00
2013,10,08,05,14,0.00
2013,10,08,05,15,0.00
2013,10,08,05,16,0.00
2013,10,08,05,17,0.00
2013,10,08,05,18,0.00
2013,10,08,05,19,0.00
2013,10,08,05,20,0.00
2013,10,08,05,21,0.00
2013,10,08,05,22,0.00
2013,10,08,05,23,0.00
2013,10,08,05,24,0.00
2013,10,08,05,25,0.00
2013,10,08,05,26,0.00
2013,10,08,05,27,0.00
2013,10,08,05,28,0.00
2013,10,08,05,29,0.00
2013,10,08,05,30,0.00
2013,10,08,05,31,0.00
2013,10,08,05,32,0.00
2013,10,08,05,33,0.00
2013,10,08,05,34,0.00
2013,10,08,05,35,0.00
2013,10,08,05,36,0.00
2013,10,08,05,37,0.00
2013,10,08,05,38,0.00
2013,10,08,05,39,0.00
2013,10,08,05,40,0.00
2013,10,08,05,41,0.00
2013,10,08,05,42,0.00
2013,10,08,05,43,0.00
2013,10,08,05,44,0.00
2013,10,08,05,45,0.00
2013,10,08,05,46,0.00
2013,10,08,05,47,0.00
2013,10,08,05,48,0.00
2013,10,08,05,49,0.00
2013,10,08,05,50,0.00
2013,10,08,05,51,0.00
2013,10,08,05,52,0.00
2013,10,08,05,53,0.00
2013,10,08,05,54,0.00
2013,10,08,05,55,0.00
2013,10,08,05,56,0.00
2013,10,08,05,57,0.00
2013,10,08,05,58,0.00
2013,10,08,05,59,0.00
2013,10,08,06,00,0.00
2013,10,08,06,01,0.00
2013,10,08,06,02,0.00
2013,10,08,06,03,0.00
2013,10,08,06,04,0.00
2013,10,08,06,05,0.00
2013,10,08,06,06,0.00
2013,10,08,06,07,0.00
2013,10,08,06,08,0.00
2013,10,08,06,09,0.00
2013,10,08,06,10,0.00
2013,10,08,06,11,0.00
2013,10,08,06,12,0.00
2013,10,08,06,13,0.00
2013,10,08,06,14,0.00
2013,10,08,06,15,0.00
2013,10,08,06,16,0.00
2013,10,08,06,17,0.00
2013,10,08,06,18,0.00
2013,10,08,06,19,0.00
2013,10,08,06,20,0.00
2013,10,08,06,21,0.00
2013,10,08,06,22,0.00
2013,10,08,06,23,0.00
2013,10,08,06,24,0.00
2013,10,08,06,25,0.00
2013,10,08,06,26,0.00
2013,10,08,06,27,0.00
2013,10,08,06,28,0.00
2013,10,08,06,29,0.00
2013,10,08,06,30,0.00
2013,10,08,06,31,0.00
2013,10,08,06,32,0.00
2013,10,08,06,33,0.00
2013,10,08,06,34,0.00
2013,10,08,06,35,0.00
2013,10,08,06,36,0.00
2013,10,08,06,37,0.00
2013,10,08,06,38,0.00
2013,10,08,06,39,0.00
2013,10,08,06,40,0.00
2013,10,08,06,41,0.00
2013,10,08,06,42,0.00
2013,10,08,06,43,0.00
2013,10,08,06,44,0.00
2013,10,08,06,45,0.00
2013,10,08,06,46,0.00
2013,10,08,06,47,0.00
2013,10,08,06,48,0.00
2013,10,08,06,49,0.00
2013,10,08,06,50,0.00
2013,10,08,06,51,0.00
2013,10,08,06,52,0.00
2013,10,08,06,53,0.00
2013,10,08,06,54,0.00
2013,10,08,06,55,0.00
2013,10,08,06,56,0.00
2013,10,08,06,57,0.00
2013,10,08,06,58,0.00
2013,10,08,06,59,0.00
2013,10,08,07,00,0.00
2013,10,08,07,01,0.00
2013,10,08,07,02,0.00
2013,10,08,07,03,0.00
2013,10,08,07,04,0.00
2013,10,08,07,05,0.00
2013,10,08,07,06,0.00
2013,10,08,07,07,0.00
2013,10,08,07,08,0.00
2013,10,08,07,09,0.00
2013,10,08,07,10,0.00
2013,10,08,07,11,0.00
2013,10,08,07,12,0.00
2013,10,08,07,13,0.00
2013,10,08,07,14,0.00
2013,10,08,07,15,0.00
2013,10,08,07,16,0.00
2013,10,08,07,17,0.00
2013,10,08,07,18,0.00
2013,10,08,07,19,0.00
2013,10,08,07,20,0.00
2013,10,08,07,21,0.00
2013,10,08,07,22,0.00
2013,10,08,07,23,0.00
2013,10,08,07,24,0.00
2013,10,08,07,25,0.00
2013,10,08,07,26,0.00
2013,10,08,07,27,0.00
2013,10,08,07,28,0.00
2013,10,08,07,29,0.00
2013,10,08,07,30,0.00
2013,10,08,07,31,0.00
2013,10,08,07,32,2.30
2013,10,08,07,33,5.00
2013,10,08,07,34,5.00
2013,10,08,07,35,5.00
2013,10,08,07,36,5.00
2013,10,08,07,37,5.50
2013,10,08,07,38,7.00
2013,10,08,07,39,8.00
2013,10,08,07,40,9.00
2013,10,08,07,41,10.40
2013,10,08,07,42,11.00
2013,10,08,07,43,11.10
2013,10,08,07,44,12.50
2013,10,08,07,45,14.70
2013,10,08,07,46,16.00
2013,10,08,07,47,14.80
2013,10,08,07,48,14.00
2013,10,08,07,49,14.00
2013,10,08,07,50,16.20
2013,10,08,07,51,18.00
2013,10,08,07,52,18.00
2013,10,08,07,53,18.00
2013,10,08,07,54,18.60
2013,10,08,07,55,20.40
2013,10,08,07,56,22.70
2013,10,08,07,57,25.00
2013,10,08,07,58,26.00
2013,10,08,07,59,25.70
2013,10,08,08,00,28.20
2013,10,08,08,01,30.80
2013,10,08,08,02,27.10
2013,10,08,08,03,26.00
2013,10,08,08,04,25.00
2013,10,08,08,05,25.00
2013,10,08,08,06,25.40
2013,10,08,08,07,26.00
2013,10,08,08,08,27.20
2013,10,08,08,09,30.90
2013,10,08,08,10,30.30
2013,10,08,08,11,26.00
2013,10,08,08,12,26.00
2013,10,08,08,13,26.00
2013,10,08,08,14,27.00
2013,10,08,08,15,28.00
2013,10,08,08,16,30.90
2013,10,08,08,17,32.90
2013,10,08,08,18,28.00
2013,10,08,08,19,28.00
2013,10,08,08,20,28.70
2013,10,08,08,21,30.00
2013,10,08,08,22,31.80
2013,10,08,08,23,42.30
2013,10,08,08,24,44.30
2013,10,08,08,25,35.70
2013,10,08,08,26,38.10
2013,10,08,08,27,34.00
2013,10,08,08,28,32.00
2013,10,08,08,29,32.00
2013,10,08,08,30,32.00
2013,10,08,08,31,32.80
2013,10,08,08,32,33.00
2013,10,08,08,33,33.00
2013,10,08,08,34,33.70
2013,10,08,08,35,35.00
2013,10,08,08,36,38.00
2013,10,08,08,37,40.00
2013,10,08,08,38,39.10
2013,10,08,08,39,38.80
2013,10,08,08,40,37.00
2013,10,08,08,41,42.70
2013,10,08,08,42,62.20
2013,10,08,08,43,89.00
2013,10,08,08,44,130.40
2013,10,08,08,45,173.90
2013,10,08,08,46,195.40
2013,10,08,08,47,199.20
2013,10,08,08,48,200.80
2013,10,08,08,49,202.90
2013,10,08,08,50,205.90
2013,10,08,08,51,208.50
2013,10,08,08,52,212.40
2013,10,08,08,53,213.50
2013,10,08,08,54,218.70
2013,10,08,08,55,221.70
2013,10,08,08,56,224.90
2013,10,08,08,57,228.80
2013,10,08,08,58,231.40
2013,10,08,08,59,232.00
2013,10,08,09,00,236.00
2013,10,08,09,01,238.00
2013,10,08,09,02,242.00
2013,10,08,09,03,244.90
2013,10,08,09,04,247.20
2013,10,08,09,05,250.10
2013,10,08,09,06,252.70
2013,10,08,09,07,255.20
2013,10,08,09,08,258.40
2013,10,08,09,09,261.40
2013,10,08,09,10,264.00
2013,10,08,09,11,265.90
2013,10,08,09,12,268.50
2013,10,08,09,13,270.70
2013,10,08,09,14,274.30
2013,10,08,09,15,278.20
2013,10,08,09,16,280.40
2013,10,08,09,17,283.90
2013,10,08,09,18,286.20
2013,10,08,09,19,287.70
2013,10,08,09,20,289.70
2013,10,08,09,21,294.20
2013,10,08,09,22,296.60
2013,10,08,09,23,297.10
2013,10,08,09,24,301.50
2013,10,08,09,25,304.30
2013,10,08,09,26,307.40
2013,10,08,09,27,308.80
2013,10,08,09,28,311.30
2013,10,08,09,29,315.20
2013,10,08,09,30,316.70
2013,10,08,09,31,319.00
2013,10,08,09,32,320.00
2013,10,08,09,33,322.20
2013,10,08,09,34,324.70
2013,10,08,09,35,327.20
2013,10,08,09,36,329.20
2013,10,08,09,37,330.70
2013,10,08,09,38,333.00
2013,10,08,09,39,335.20
2013,10,08,09,40,337.40
2013,10,08,09,41,338.90
2013,10,08,09,42,343.00
2013,10,08,09,43,343.50
2013,10,08,09,44,345.40
2013,10,08,09,45,347.00
2013,10,08,09,46,349.20
2013,10,08,09,47,350.00
2013,10,08,09,48,352.60
2013,10,08,09,49,355.40
2013,10,08,09,50,358.50
2013,10,08,09,51,358.10
2013,10,08,09,52,361.00
2013,10,08,09,53,362.00
2013,10,08,09,54,362.00
2013,10,08,09,55,366.30
2013,10,08,09,56,367.20
2013,10,08,09,57,369.50
2013,10,08,09,58,371.80
2013,10,08,09,59,373.50
2013,10,08,10,00,375.20
2013,10,08,10,01,377.40
2013,10,08,10,02,380.60
2013,10,08,10,03,381.00
2013,10,08,10,04,382.00
2013,10,08,10,05,385.00
2013,10,08,10,06,386.00
2013,10,08,10,07,387.00
2013,10,08,10,08,387.00
2013,10,08,10,09,391.30
2013,10,08,10,10,395.80
2013,10,08,10,11,394.50
2013,10,08,10,12,397.10
2013,10,08,10,13,400.00
2013,10,08,10,14,402.20
2013,10,08,10,15,403.00
2013,10,08,10,16,403.90
2013,10,08,10,17,403.20
2013,10,08,10,18,406.50
2013,10,08,10,19,408.00
2013,10,08,10,20,409.00
2013,10,08,10,21,412.90
2013,10,08,10,22,415.00
2013,10,08,10,23,415.00
2013,10,08,10,24,415.20
2013,10,08,10,25,417.00
2013,10,08,10,26,418.00
2013,10,08,10,27,420.90
2013,10,08,10,28,420.80
2013,10,08,10,29,420.00
2013,10,08,10,30,423.30
2013,10,08,10,31,426.90
2013,10,08,10,32,427.90
2013,10,08,10,33,432.00
2013,10,08,10,34,434.00
2013,10,08,10,35,435.20
2013,10,08,10,36,434.60
2013,10,08,10,37,435.70
2013,10,08,10,38,438.40
2013,10,08,10,39,442.60
2013,10,08,10,40,441.70
2013,10,08,10,41,444.40
2013,10,08,10,42,445.40
2013,10,08,10,43,443.60
2013,10,08,10,44,445.50
2013,10,08,10,45,446.80
2013,10,08,10,46,453.60
2013,10,08,10,47,452.70
2013,10,08,10,48,454.50
2013,10,08,10,49,455.00
2013,10,08,10,50,456.40
2013,10,08,10,51,458.70
2013,10,08,10,52,461.00
2013,10,08,10,53,461.40
2013,10,08,10,54,461.40
2013,10,08,10,55,465.10
2013,10,08,10,56,462.20
2013,10,08,10,57,463.10
2013,10,08,10,58,467.30
2013,10,08,10,59,474.10
2013,10,08,11,00,469.40
2013,10,08,11,01,471.00
2013,10,08,11,02,473.00
2013,10,08,11,03,473.80
2013,10,08,11,04,470.00
2013,10,08,11,05,475.00
2013,10,08,11,06,479.80
2013,10,08,11,07,479.00
2013,10,08,11,08,482.40
2013,10,08,11,09,483.00
2013,10,08,11,10,482.40
2013,10,08,11,11,485.80
2013,10,08,11,12,487.00
2013,10,08,11,13,485.20
2013,10,08,11,14,488.20
2013,10,08,11,15,491.20
2013,10,08,11,16,492.00
2013,10,08,11,17,494.00
2013,10,08,11,18,492.50
2013,10,08,11,19,495.40
2013,10,08,11,20,493.80
2013,10,08,11,21,492.50
2013,10,08,11,22,497.20
2013,10,08,11,23,503.50
2013,10,08,11,24,505.20
2013,10,08,11,25,504.50
2013,10,08,11,26,505.70
2013,10,08,11,27,508.40
2013,10,08,11,28,511.50
2013,10,08,11,29,510.00
2013,10,08,11,30,511.40
2013,10,08,11,31,509.90
2013,10,08,11,32,511.80
2013,10,08,11,33,518.20
2013,10,08,11,34,518.80
2013,10,08,11,35,517.50
2013,10,08,11,36,517.60
2013,10,08,11,37,515.00
2013,10,08,11,38,517.50
2013,10,08,11,39,524.20
2013,10,08,11,40,526.90
2013,10,08,11,41,527.40
2013,10,08,11,42,531.70
2013,10,08,11,43,534.70
2013,10,08,11,44,535.00
2013,10,08,11,45,536.40
2013,10,08,11,46,536.60
2013,10,08,11,47,539.40
2013,10,08,11,48,534.80
2013,10,08,11,49,540.00
2013,10,08,11,50,537.60
2013,10,08,11,51,531.10
2013,10,08,11,52,535.70
2013,10,08,11,53,535.70
2013,10,08,11,54,534.00
2013,10,08,11,55,535.70
2013,10,08,11,56,535.30
2013,10,08,11,57,540.00
2013,10,08,11,58,540.50
2013,10,08,11,59,542.20
2013,10,08,12,00,540.80
2013,10,08,12,01,538.30
2013,10,08,12,02,540.40
2013,10,08,12,03,546.10
2013,10,08,12,04,550.00
2013,10,08,12,05,549.00
2013,10,08,12,06,551.60
2013,10,08,12,07,554.70
2013,10,08,12,08,554.10
2013,10,08,12,09,553.80
2013,10,08,12,10,552.60
2013,10,08,12,11,552.60
2013,10,08,12,12,554.30
2013,10,08,12,13,562.20
2013,10,08,12,14,563.70
2013,10,08,12,15,564.00
2013,10,08,12,16,572.50
2013,10,08,12,17,571.90
2013,10,08,12,18,572.60
2013,10,08,12,19,571.40
2013,10,08,12,20,576.20
2013,10,08,12,21,577.70
2013,10,08,12,22,577.10
2013,10,08,12,23,579.60
2013,10,08,12,24,576.60
2013,10,08,12,25,576.70
2013,10,08,12,26,581.00
2013,10,08,12,27,579.00
2013,10,08,12,28,580.60
2013,10,08,12,29,577.70
2013,10,08,12,30,571.80
2013,10,08,12,31,578.70
2013,10,08,12,32,585.00
2013,10,08,12,33,585.00
2013,10,08,12,34,585.00
2013,10,08,12,35,586.40
2013,10,08,12,36,585.30
2013,10,08,12,37,588.90
2013,10,08,12,38,589.00
2013,10,08,12,39,589.70
2013,10,08,12,40,592.40
2013,10,08,12,41,592.80
2013,10,08,12,42,593.40
2013,10,08,12,43,591.40
2013,10,08,12,44,592.70
2013,10,08,12,45,597.90
2013,10,08,12,46,594.70
2013,10,08,12,47,597.00
2013,10,08,12,48,598.00
2013,10,08,12,49,595.10
2013,10,08,12,50,597.40
2013,10,08,12,51,601.80
2013,10,08,12,52,607.40
2013,10,08,12,53,598.30
2013,10,08,12,54,600.90
2013,10,08,12,55,606.00
2013,10,08,12,56,605.80
2013,10,08,12,57,609.30
2013,10,08,12,58,607.90
2013,10,08,12,59,606.90
2013,10,08,13,00,610.00
2013,10,08,13,01,610.00
2013,10,08,13,02,611.80
2013,10,08,13,03,610.80
2013,10,08,13,04,606.60
2013,10,08,13,05,606.60
2013,10,08,13,06,611.60
2013,10,08,13,07,609.30
2013,10,08,13,08,609.90
2013,10,08,13,09,607.90
2013,10,08,13,10,605.00
2013,10,08,13,11,607.60
2013,10,08,13,12,608.00
2013,10,08,13,13,608.00
2013,10,08,13,14,608.00
2013,10,08,13,15,603.80
2013,10,08,13,16,599.00
2013,10,08,13,17,603.30
2013,10,08,13,18,603.30
2013,10,08,13,19,606.30
2013,10,08,13,20,608.20
2013,10,08,13,21,604.80
2013,10,08,13,22,609.90
2013,10,08,13,23,606.50
2013,10,08,13,24,604.40
2013,10,08,13,25,605.00
2013,10,08,13,26,602.90
2013,10,08,13,27,602.10
2013,10,08,13,28,606.70
2013,10,08,13,29,607.00
2013,10,08,13,30,607.20
2013,10,08,13,31,608.00
2013,10,08,13,32,611.40
2013,10,08,13,33,611.80
2013,10,08,13,34,609.50
2013,10,08,13,35,607.30
2013,10,08,13,36,607.00
2013,10,08,13,37,606.80
2013,10,08,13,38,605.30
2013,10,08,13,39,601.60
2013,10,08,13,40,602.60
2013,10,08,13,41,598.80
2013,10,08,13,42,598.40
2013,10,08,13,43,600.90
2013,10,08,13,44,600.60
2013,10,08,13,45,598.30
2013,10,08,13,46,600.60
2013,10,08,13,47,600.80
2013,10,08,13,48,598.80
2013,10,08,13,49,597.30
2013,10,08,13,50,597.00
2013,10,08,13,51,596.80
2013,10,08,13,52,594.60
2013,10,08,13,53,594.00
2013,10,08,13,54,592.20
2013,10,08,13,55,594.00
2013,10,08,13,56,593.30
2013,10,08,13,57,591.50
2013,10,08,13,58,589.80
2013,10,08,13,59,589.00
2013,10,08,14,00,589.00
2013,10,08,14,01,588.80
2013,10,08,14,02,586.50
2013,10,08,14,03,584.60
2013,10,08,14,04,584.50
2013,10,08,14,05,584.40
2013,10,08,14,06,582.50
2013,10,08,14,07,582.00
2013,10,08,14,08,580.00
2013,10,08,14,09,580.50
2013,10,08,14,10,580.50
2013,10,08,14,11,578.00
2013,10,08,14,12,577.40
2013,10,08,14,13,577.00
2013,10,08,14,14,575.30
2013,10,08,14,15,574.80
2013,10,08,14,16,573.00
2013,10,08,14,17,573.00
2013,10,08,14,18,572.00
2013,10,08,14,19,570.40
2013,10,08,14,20,567.00
2013,10,08,14,21,566.00
2013,10,08,14,22,563.90
2013,10,08,14,23,563.20
2013,10,08,14,24,562.10
2013,10,08,14,25,559.00
2013,10,08,14,26,559.00
2013,10,08,14,27,560.50
2013,10,08,14,28,555.80
2013,10,08,14,29,552.30
2013,10,08,14,30,554.30
2013,10,08,14,31,552.00
2013,10,08,14,32,552.00
2013,10,08,14,33,552.00
2013,10,08,14,34,548.20
2013,10,08,14,35,547.90
2013,10,08,14,36,547.90
2013,10,08,14,37,547.00
2013,10,08,14,38,545.50
2013,10,08,14,39,544.00
2013,10,08,14,40,543.80
2013,10,08,14,41,543.00
2013,10,08,14,42,540.40
2013,10,08,14,43,540.10
2013,10,08,14,44,540.30
2013,10,08,14,45,536.20
2013,10,08,14,46,533.50
2013,10,08,14,47,533.40
2013,10,08,14,48,531.60
2013,10,08,14,49,529.30
2013,10,08,14,50,527.40
2013,10,08,14,51,530.00
2013,10,08,14,52,527.70
2013,10,08,14,53,528.00
2013,10,08,14,54,527.00
2013,10,08,14,55,526.30
2013,10,08,14,56,526.00
2013,10,08,14,57,521.50
2013,10,08,14,58,516.50
2013,10,08,14,59,515.00
2013,10,08,15,00,516.00
2013,10,08,15,01,517.00
2013,10,08,15,02,514.10
2013,10,08,15,03,510.40
2013,10,08,15,04,505.70
2013,10,08,15,05,502.00
2013,10,08,15,06,499.00
2013,10,08,15,07,497.60
2013,10,08,15,08,491.80
2013,10,08,15,09,492.60
2013,10,08,15,10,494.00
2013,10,08,15,11,491.70
2013,10,08,15,12,488.50
2013,10,08,15,13,487.00
2013,10,08,15,14,485.10
2013,10,08,15,15,481.20
2013,10,08,15,16,481.40
2013,10,08,15,17,478.60
2013,10,08,15,18,475.00
2013,10,08,15,19,475.00
2013,10,08,15,20,474.30
2013,10,08,15,21,473.00
2013,10,08,15,22,474.20
2013,10,08,15,23,472.10
2013,10,08,15,24,471.00
2013,10,08,15,25,468.70
2013,10,08,15,26,465.00
2013,10,08,15,27,462.70
2013,10,08,15,28,463.00
2013,10,08,15,29,460.20
2013,10,08,15,30,456.10
2013,10,08,15,31,452.40
2013,10,08,15,32,449.80
2013,10,08,15,33,447.30
2013,10,08,15,34,445.00
2013,10,08,15,35,442.10
2013,10,08,15,36,438.40
2013,10,08,15,37,436.60
2013,10,08,15,38,436.00
2013,10,08,15,39,433.70
2013,10,08,15,40,431.00
2013,10,08,15,41,430.30
2013,10,08,15,42,429.00
2013,10,08,15,43,427.80
2013,10,08,15,44,424.80
2013,10,08,15,45,418.90
2013,10,08,15,46,416.40
2013,10,08,15,47,411.50
2013,10,08,15,48,413.00
2013,10,08,15,49,412.00
2013,10,08,15,50,408.00
2013,10,08,15,51,406.00
2013,10,08,15,52,404.30
2013,10,08,15,53,405.60
2013,10,08,15,54,402.00
2013,10,08,15,55,398.30
2013,10,08,15,56,397.00
2013,10,08,15,57,394.00
2013,10,08,15,58,390.60
2013,10,08,15,59,390.00
2013,10,08,16,00,387.60
2013,10,08,16,01,382.60
2013,10,08,16,02,381.70
2013,10,08,16,03,380.70
2013,10,08,16,04,375.70
2013,10,08,16,05,373.30
2013,10,08,16,06,371.30
2013,10,08,16,07,371.00
2013,10,08,16,08,370.10
2013,10,08,16,09,366.00
2013,10,08,16,10,364.00
2013,10,08,16,11,362.80
2013,10,08,16,12,362.00
2013,10,08,16,13,357.70
2013,10,08,16,14,352.60
2013,10,08,16,15,347.60
2013,10,08,16,16,345.70
2013,10,08,16,17,345.00
2013,10,08,16,18,343.80
2013,10,08,16,19,341.60
2013,10,08,16,20,338.40
2013,10,08,16,21,335.90
2013,10,08,16,22,333.10
2013,10,08,16,23,329.70
2013,10,08,16,24,325.80
2013,10,08,16,25,320.80
2013,10,08,16,26,318.60
2013,10,08,16,27,316.30
2013,10,08,16,28,315.00
2013,10,08,16,29,314.60
2013,10,08,16,30,311.60
2013,10,08,16,31,307.60
2013,10,08,16,32,303.70
2013,10,08,16,33,302.00
2013,10,08,16,34,297.70
2013,10,08,16,35,292.00
2013,10,08,16,36,289.60
2013,10,08,16,37,287.70
2013,10,08,16,38,285.10
2013,10,08,16,39,280.70
2013,10,08,16,40,278.30
2013,10,08,16,41,278.00
2013,10,08,16,42,273.90
2013,10,08,16,43,271.80
2013,10,08,16,44,269.60
2013,10,08,16,45,265.60
2013,10,08,16,46,261.70
2013,10,08,16,47,257.80
2013,10,08,16,48,253.60
2013,10,08,16,49,250.80
2013,10,08,16,50,247.60
2013,10,08,16,51,245.00
2013,10,08,16,52,241.10
2013,10,08,16,53,237.80
2013,10,08,16,54,234.80
2013,10,08,16,55,230.60
2013,10,08,16,56,226.90
2013,10,08,16,57,224.60
2013,10,08,16,58,221.30
2013,10,08,16,59,215.70
2013,10,08,17,00,210.70
2013,10,08,17,01,207.50
2013,10,08,17,02,204.40
2013,10,08,17,03,201.60
2013,10,08,17,04,198.00
2013,10,08,17,05,194.20
2013,10,08,17,06,191.50
2013,10,08,17,07,187.50
2013,10,08,17,08,185.20
2013,10,08,17,09,181.60
2013,10,08,17,10,178.70
2013,10,08,17,11,175.50
2013,10,08,17,12,172.90
2013,10,08,17,13,169.00
2013,10,08,17,14,165.80
2013,10,08,17,15,162.80
2013,10,08,17,16,158.60
2013,10,08,17,17,154.90